www.pogodaiklimat.ru

Погода и климат >> Архив погоды >> Малайзия >> Kuala Lumpur


АРХИВ ПОГОДЫ в Kuala Lumpur

Время (UTC), дата Ветер
(напр.,м/с)
 
Видим.   Явления Облачность Т
(С)
Тd
(С)
f
(%)
Тe
(С)
Тes
(С)
Комфортность P
(гПа)
Po
(гПа)
Тmin
(С)
Tmax
(С)
R
(мм)
R24
(мм)
S
(см)
12 22.04 СЗ 3 10 км мгла 8/1 600 м
[Cu Sc Ac lent Ci sp]
+28.6 +24.3 78 +40 +40 очень
душно
1010.6 1008.1 +32.1
15 22.04 СЗ 2 10 км мгла 8/3 750 м
[Sc Ac trans Ci fib]
+27.0 +23.3 80 +36 +36 очень
душно
1012.6 1010.1
18 22.04 СЗ 1 10 км мгла 8/3 750 м
[Sc Ac trans Ci fib]
+26.1 +23.4 85 +35 +35 очень
душно
1011.1 1008.6
21 22.04 СЗ 1 10 км мгла 8/3 750 м
[Sc Ac trans Ci sp]
+25.2 +23.5 90 +34 +34 очень
душно
1010.2 1007.7
00 23.04 СЗ 1 10 км мгла 8/3 500 м
[Cb cap Ac trans Ci fib]
+25.7 +23.6 88 +35 +35 очень
душно
1011.8 1009.3 +24.0
03 23.04 СЗ 2 18 км мгла 8/5 500 м
[Cb cap Ac lent Ci sp]
+31.2 +23.7 64 +42 +48 опасность
перегрева
1013.1 1010.6
06 23.04 СЗ 3 18 км мгла 8/4 600 м
[Cu med, cong Ac trans Ci sp]
+33.8 +22.9 53 +44 +51 опасность
перегрева
1010.3 1007.9
09 23.04 З 3 18 км мгла 8/4 500 м
[Cb cap Ac trans Ci sp]
+33.5 +22.4 52 +43 +45 опасность
перегрева
1008.0 1005.6
12 23.04 З 2 12 км мгла 8/3 800 м
[Sc Ac lent Ci sp]
+30.3 +24.0 69 +42 +42 опасность
перегрева
1009.6 1007.1 +34.6
15 23.04 штиль 0 12 км мгла 8/1 800 м
[Sc diur, vesp Ac lent Ci sp]
+28.8 +24.4 77 +40 +40 очень
душно
1012.0 1009.5
18 23.04 С 2 7000 м дождь 8/4 540 м
[Cu Sc Ac lent Ci sp]
+26.9 +25.6 93 +40 +40 очень
душно
1011.1 1008.6 9
21 23.04 штиль 0 7000 м зарница {дождь} 8/1 500 м
[Cb cap Ac lent Ci sp]
+26.5 +25.1 92 +38 +38 очень
душно
1010.0 1007.5
00 24.04 штиль 0 5000 м мгла {гроза, дождь} 8/1 500 м
[Cb cap Ac lent Ci sp]
+26.7 +25.4 93 +39 +40 очень
душно
1011.5 1009.0 +25.7 9
03 24.04 Ю 2 9000 м мгла 8/4 500 м
[Cb cap Ac trans Ci fib]
+30.8 +25.2 72 +45 +51 опасность
перегрева
1012.9 1010.4
06 24.04 З 1 10 км в посл. час гроза 8/4 500 м
[Cb cap Ac lent Ci sp]
+29.8 +23.6 69 +40 +50 очень
душно
1010.6 1008.1
09 24.04 СЗ 2 12 км мгла {гроза} 8/4 500 м
[Cb cap Ac lent Cs]
+30.2 +24.1 70 +42 +45 опасность
перегрева
1008.7 1006.2
12 24.04 СЗ 2 10 км мгла 8/3 800 м
[Sc Ac und Ci sp]
+28.4 +24.5 79 +40 +40 очень
душно
1010.6 1008.1 +31.7
15 24.04 СЗ 1 6000 м мгла 8/3 800 м
[Sc Ac trans Ci sp]
+26.9 +24.4 86 +38 +38 очень
душно
1012.3 1009.8
18 24.04 штиль 0 8000 м мгла 8/1 800 м
[Sc Ac trans Ci sp]
+26.0 +24.6 92 +37 +37 очень
душно
1011.4 1008.9
21 24.04 штиль 0 5000 м зарница 8/4 500 м
[Cb cap Ac lent Ci sp]
+25.8 +24.4 92 +36 +36 очень
душно
1010.0 1007.5
00 25.04 СЗ 1 5000 м мгла 8/3 500 м
[Cb cap Ac lent Ci sp]
+26.5 +24.1 87 +37 +37 очень
душно
1011.0 1008.5 +25.6
03 25.04 СЗ 3 12 км мгла 8/3 570 м
[Cu med, cong Ac trans Ci sp]
+31.0 +23.8 66 +43 +48 опасность
перегрева
1012.6 1010.1
06 25.04 З 4 15 км мгла 8/5 500 м
[Cb cap Ac trans Ci sp]
+32.5 +24.9 64 +46 +50 опасность
перегрева
1010.3 1007.9
09 25.04 З 4 13 км гроза без осадков 8/5 500 м
[Cb cap Ac trans Ci sp]
+30.6 +22.7 63 +40 +42 очень
душно
1007.8 1005.3
12 25.04 СЗ 3 10 км гроза без осадков 8/4 500 м
[Cb cap Ac lent Cs]
+27.1 +23.1 79 +36 +36 очень
душно
1010.0 1007.5 +32.5
15 25.04 СЗ 2 10 км зарница {гроза} 8/3 500 м
[Cb cap Ac lent Ci sp]
+26.0 +23.5 86 +35 +35 очень
душно
1012.2 1009.7
18 25.04 СВ 1 10 км зарница 8/3 500 м
[Cb cap Ac lent Ci sp]
+25.8 +23.7 88 +35 +35 очень
душно
1010.7 1008.2
21 25.04 штиль 0 10 км зарница 8/1 500 м
[Cb cap Ac lent Ci sp]
+25.3 +23.6 90 +34 +34 очень
душно
1009.3 1006.8
00 26.04 ЮЗ 1 12 км мгла 8/4 500 м
[Cb cap Ac lent Ci sp]
+26.2 +24.0 88 +36 +37 очень
душно
1010.9 1008.4 +25.2
03 26.04 ЮВ 3 8000 м мгла 8/3 500 м
[Cb cap Ac lent Ci sp]
+29.9 +23.9 70 +41 +47 опасность
перегрева
1012.2 1009.7
06 26.04 СЗ 3 2000 м гроза, ливневой дождь 10/4 150 м
[Cb cap Ac lent Cs]
+24.3 +23.2 94 +33 +38 очень
душно
1011.5 1009.0 25
09 26.04 СЗ 3 7000 м слабый дождь 10/3 150 м
[Cb cap Ac lent Cs]
+25.3 +24.3 94 +35 +37 очень
душно
1009.5 1007.0
12 26.04 З 1 10 км зарница {гроза, дождь} 9/5 500 м
[Cb cap Ac trans Cs]
+24.8 +23.3 91 +33 +33 очень
душно
1010.5 1008.0 +30.4 12
15 26.04 З 1 9000 м зарница 9/4 500 м
[Cb cap Ac trans Ci fib]
+24.9 +23.6 92 +34 +34 очень
душно
1012.9 1010.4
18 26.04 С 1 7000 м зарница 9/3 500 м
[Cb cap Ac trans Ci fib]
+24.8 +23.6 93 +34 +34 очень
душно
1011.5 1009.0
21 26.04 С 1 8000 м мгла 9/3 800 м
[Sc Ac trans Ci fib]
+24.2 +23.0 93 +32 +32 очень
душно
1010.5 1008.0
00 27.04 З 1 10 км мгла 9/5 90 м
[St Ac trans Ci sp]
+24.5 +23.8 96 +33 +34 очень
душно
1011.9 1009.4 +23.9 37
03 27.04 С 2 15 км мгла 9/3 540 м
[Cu med, cong Ac trans Ci sp]
+29.3 +23.2 70 +40 +46 очень
душно
1012.6 1010.1
06 27.04 СЗ 4 18 км мгла 9/4 600 м
[Cu med, cong Ac trans Ci sp]
+32.6 +23.5 59 +44 +49 опасность
перегрева
1010.3 1007.9
09 27.04 З 4 18 км мгла 9/3 600 м
[Cu med, cong Ac lent Ci sp]
+30.3 +23.9 69 +42 +44 опасность
перегрева
1007.9 1005.4
12 27.04 З 3 12 км мгла 9/1 800 м
[Sc Ac lent Ci sp]
+28.2 +24.7 81 +40 +40 очень
душно
1010.0 1007.5 +32.6
15 27.04 С 2 10 км в посл. час гроза 9/4 500 м
[Cb cap Ac lent Ci sp]
+27.7 +23.9 80 +38 +38 очень
душно
1012.3 1009.8
18 27.04 штиль 0 10 км зарница {гроза} 9/1 500 м
[Cb cap Ac lent Ci sp]
+26.4 +24.4 89 +37 +37 очень
душно
1011.9 1009.4
21 27.04 штиль 0 10 км зарница 9/1 500 м
[Cb cap Ac lent Ci sp]
+25.4 +23.4 89 +34 +34 очень
душно
1010.5 1008.0
00 28.04 СВ 1 9000 м мгла 9/1 500 м
[Cb cap Ac lent Ci sp]
+25.7 +23.6 88 +35 +35 очень
душно
1011.4 1008.9 +24.5
03 28.04 СВ 2 15 км мгла 9/4 500 м
[Cb cap Ac trans Ci sp]
+29.8 +24.3 72 +42 +47 опасность
перегрева
1012.8 1010.3
06 28.04 ЮЗ 4 12 км в посл. час ливневой дождь 9/5 500 м
[Cb cap Ac lent Ci sp]
+29.4 +24.6 75 +42 +46 опасность
перегрева
1010.8 1008.3 0.8
09 28.04 СЗ 2 4000 м гроза, ливневой дождь 10/6 90 м
[Cb cap Ac und Cs]
+25.2 +22.5 85 +33 +34 очень
душно
1010.3 1007.8
12 28.04 С 1 8000 м зарница {гроза, дождь} 9/4 500 м
[Cb cap Ac lent Cs]
+25.0 +23.4 91 +34 +34 очень
душно
1010.8 1008.3 +31.8 8
15 28.04 СЗ 2 5000 м зарница 9/3 500 м
[Cb cap Ac lent Cs]
+24.9 +23.7 93 +34 +34 очень
душно
1012.4 1009.9
18 28.04 С 1 6000 м зарница 9/1 500 м
[Cb cap Ac lent Ci sp]
+24.3 +23.1 93 +32 +32 очень
душно
1011.3 1008.8
21 28.04 СЗ 1 6000 м зарница 9/1 500 м
[Cb cap Ac lent Ci sp]
+23.8 +22.9 95 +32 +32 очень
душно
1011.0 1008.5
00 29.04 С 1 5000 м мгла 8/1 480 м
[Cb cap Ac lent Ci sp]
+24.2 +23.0 93 +32 +33 очень
душно
1012.0 1009.5 +23.6 9
03 29.04 СЗ 3 12 км мгла 9/1 570 м
[Cu med, cong Ac trans Ci fib]
+30.4 +23.8 68 +42 +48 опасность
перегрева
1012.4 1009.9
06 29.04 СЗ 3 12 км мгла 9/3 570 м
[Cu med, cong Ac trans Ci fib]
+33.7 +22.9 53 +44 +51 опасность
перегрева
1010.2 1007.8
09 29.04 З 4 10 км гроза без осадков 9/4 500 м
[Cb cap Ac lent Ci fib]
+32.1 +24.8 65 +45 +47 опасность
перегрева
1007.6 1005.2

 

Местоположение метеостанции Kuala Lumpur (Малайзия): широта 3.12 долгота 101.55 высота над уровнем моря 22 м.

В архиве по умолчанию представлена погода в Kuala Lumpur за последнюю неделю. Архивные данные за месяц целиком и за предыдущие месяцы, начиная с января 2011 года, Вы можете получить, выбрав интересующий диапазон дат из раскрывающегося списка и нажав кнопку "Ввод!".

Внимание! Время в таблицах - всемирное. Для получения местного времени необходимо прибавить поправку, которая в Kuala Lumpur равна 7 ч.

Смотрите также архив погоды в соседних городах и на ближайших метеорологических станциях:

Погода в Kuala Lumpur Int Airport (Малайзия) (48 км)
Погода в Malacca (Малайзия) (122 км)
Погода в Cameron Highlands (Малайзия) (151 км)
Погода в Sitiawan (Малайзия) (155 км)
Погода в Ipoh (Малайзия) (169 км)
Погода в Kuantan (Малайзия) (198 км)
Погода в Penang (Малайзия) (282 км)
Погода в Johore Bharu / Senai (Малайзия) (288 км)
Погода в Butterworth Air Base (Малайзия) (292 км)
Погода в Pekanbaru (Индонезия) (295 км)

Пояснения к столбцам:

Ветер - указаны скорость ветра в м/с - средняя за 10 мин, порывы в срок и между сроками (в фигурных скобках) и направление, откуда дует ветер: С - северный, СВ - северо-восточный, В - восточный, ЮВ - юго-восточный, Ю - южный, ЮЗ - юго-западный, З - западный, СЗ - северо-западный.
Видимость - горизонтальная дальность видимости в метрах или километрах. При видимости от 1 до 10 км при отсутствии осадков обычно наблюдается дымка, при ухудшении видимости до 1 км и менее - туман. В сухую погоду видимость может ухудшаться дымом, пылью или мглою.
Явления - указаны атмосферные явления, наблюдавшиеся в срок или в последний час перед сроком; фигурными скобками обозначены явления, наблюдавшиеся между сроками (за 1-3 часа до срока); квадратными скобками обозначены град или гололедные отложения с указанием их диаметра в мм.
Облачность - указаны через наклонную черту общая и нижняя облачность в баллах и высота нижней границы облаков в метрах; квадратными скобками обозначены формы облаков: Ci - перистые, Cs - перисто-слоистые, Cc - перисто-кучевые, Ac - высококучевые, As - высокослоистые, Sc - слоисто-кучевые, Ns - слоисто-дождевые, Cu - кучевые, Cb - кучево-дождевые. Подробнее классификацию облаков см. в Атласе облаков (PDF).
T - Температура воздуха - температура, измеренная на высоте 2 м над землей.
Td - Температура точки росы - температура, при понижении до которой содержащийся в воздухе водяной пар достигнет насыщения.
f - Относительная влажность воздуха - влажноcть воздуха, измеренная на высоте 2 м над землей.
Te - Эффективная температура - температура, которую ощущает одетый по сезону человек в тени. Характеристика душности погоды. При расчете учитывается влияние влажности воздуха и скорости ветра на теплоощущения человека.
Tes - Эффективная температура на солнце - температура, которую ощущает человек, с поправкой на солнечный нагрев. Характеристика знойности погоды. Зависит от высоты солнца над горизонтом, облачности и скорости ветра. Ночью, в пасмурную погоду, а также при ветре 12 м/с и более поправка равна нулю.
P - Атмосферное давление - приведенное к уровню моря атмосферное давление.
Po - Атмосферное давление - измеренное на уровне метеостанции атмосферное давление.
Tmin - Минимальная температура - минимум температуры воздуха на высоте 2 м над землей.
Tmax - Максимальная температура - максимум температуры воздуха на высоте 2 м над землей.
R - Количество осадков - Количество выпавших осадков за период времени, мм. При наведении курсора мыши на число - период времени, за который выпало указанное количество осадков.
R24 - Количество осадков - Количество выпавших осадков за 24 часа, мм.
S - Снежный покров - Высота снежного покрова, см. При наведении курсора мыши на число - состояние снежного покрова и степень покрытия местности в баллах.